TimeCDT,TemperatureF,Dew PointF,Humidity,Sea Level PressureIn,VisibilityMPH,Wind Direction,Wind SpeedMPH,Gust SpeedMPH,PrecipitationIn,Events,Conditions,WindDirDegrees,DateUTC
12:53 AM,39.9,30.9,70,30.19,10.0,Calm,Calm,-,N/A,,Clear,0,2013-03-28 05:53:00
1:53 AM,37.0,30.0,76,30.19,10.0,Calm,Calm,-,N/A,,Clear,0,2013-03-28 06:53:00
2:53 AM,33.1,27.0,78,30.19,10.0,NNW,3.5,-,N/A,,Clear,340,2013-03-28 07:53:00
3:53 AM,32.0,26.1,79,30.20,9.0,Calm,Calm,-,N/A,,Clear,0,2013-03-28 08:53:00
4:53 AM,32.0,27.0,82,30.19,9.0,NNW,4.6,-,N/A,,Clear,340,2013-03-28 09:53:00
5:53 AM,30.0,26.1,85,30.19,9.0,NW,5.8,-,N/A,,Clear,320,2013-03-28 10:53:00
6:53 AM,30.0,25.0,82,30.19,9.0,NW,3.5,-,N/A,,Clear,310,2013-03-28 11:53:00
7:53 AM,30.9,26.1,82,30.20,10.0,Calm,Calm,-,N/A,,Clear,0,2013-03-28 12:53:00
8:53 AM,36.0,28.9,76,30.20,8.0,NE,4.6,-,N/A,,Clear,40,2013-03-28 13:53:00
9:53 AM,41.0,32.0,70,30.19,10.0,East,4.6,-,N/A,,Clear,90,2013-03-28 14:53:00
10:53 AM,48.9,33.1,54,30.19,10.0,NE,4.6,-,N/A,,Clear,40,2013-03-28 15:53:00
11:53 AM,55.0,33.1,43,30.19,10.0,NNE,6.9,-,N/A,,Clear,20,2013-03-28 16:53:00
12:53 PM,60.1,33.1,36,30.18,10.0,East,8.1,-,N/A,,Clear,80,2013-03-28 17:53:00
1:53 PM,63.0,34.0,34,30.16,10.0,ESE,8.1,-,N/A,,Clear,120,2013-03-28 18:53:00
2:53 PM,64.0,33.1,31,30.14,10.0,ESE,9.2,-,N/A,,Clear,110,2013-03-28 19:53:00
3:53 PM,64.9,32.0,29,30.11,10.0,ENE,9.2,-,N/A,,Clear,70,2013-03-28 20:53:00
4:53 PM,66.0,32.0,28,30.09,10.0,East,9.2,-,N/A,,Clear,100,2013-03-28 21:53:00
5:53 PM,66.9,34.0,30,30.08,10.0,East,10.4,-,N/A,,Clear,90,2013-03-28 22:53:00
6:53 PM,64.9,35.1,33,30.09,10.0,ESE,9.2,-,N/A,,Clear,110,2013-03-28 23:53:00
7:53 PM,62.1,36.0,38,30.11,10.0,East,4.6,-,N/A,,Clear,100,2013-03-29 00:53:00
8:53 PM,59.0,37.0,44,30.12,10.0,East,5.8,-,N/A,,Clear,100,2013-03-29 01:53:00
9:53 PM,57.0,37.0,47,30.14,10.0,East,4.6,-,N/A,,Clear,80,2013-03-29 02:53:00
10:53 PM,54.0,37.9,55,30.14,10.0,East,5.8,-,N/A,,Clear,80,2013-03-29 03:53:00
11:53 PM,53.1,37.9,57,30.14,10.0,ENE,6.9,-,N/A,,Clear,70,2013-03-29 04:53:00